World > North America > United States   City of Washington, DC
Hourly Weather in Washington, D.C.Washington, D.C. Hourly Weather

Washington, DC Hourly Weather

Hourly Weather Washington, D.C.Hourly Weather in Washington, DC
Lat: 38.91N, Lon: 77.02W  ICAO: KDCA
Web Search

Ads allow us to feed your daily addiction for the world's greatest weather information. We're determined to offer quality sponsors, in the least annoying way possible.

Feedback

Washington Hourly Weather

36 Hour Weather Scroll   °F Click to change Washington hourly weather to Imperial units.Click to change Washington hourly weather to Metric units. °C
Currently, Partly Cloudy, temperature is 69°F21°C, dew point 38°F3°C, humidity 32%. Wind direction is NW at 18 mph29 km/h with visibility of 10.00 mi16 km. Barometric pressure is 29.94 in1014 mb.

Oct 18
3:00 PM

Oct 18
4:00 PM

Oct 18
5:00 PM

Oct 18
6:00 PM

Oct 18
7:00 PM

Oct 18
8:00 PM

Oct 18
9:00 PM

Oct 18
10:00 PM

Oct 18
11:00 PM

Oct 19
MIDNIGHT

Oct 19
1:00 AM

Oct 19
2:00 AM

Oct 19
3:00 AM

Oct 19
4:00 AM

Oct 19
5:00 AM

Oct 19
6:00 AM

Oct 19
7:00 AM

Oct 19
8:00 AM

Oct 19
9:00 AM

Oct 19
10:00 AM

Oct 19
11:00 AM

Oct 19
NOON

Oct 19
1:00 PM

Oct 19
2:00 PM

Oct 19
3:00 PM

Oct 19
4:00 PM

Oct 19
5:00 PM

Oct 19
6:00 PM

Oct 19
7:00 PM

Oct 19
8:00 PM

Oct 19
9:00 PM

Oct 19
10:00 PM

Oct 19
11:00 PM

Oct 20
MIDNIGHT

Oct 20
1:00 AM

Oct 20
2:00 AM
Partly Cloudy Partly Cloudy Partly Cloudy Partly Cloudy Clear Clear Clear Clear Clear Clear Clear Clear Clear Clear Clear Clear Clear Clear Clear Clear Clear Clear Clear Clear Clear Clear Clear Clear Clear Clear Clear Clear Clear Clear Clear Clear
Partly Cloudy Partly Cloudy Partly Cloudy Partly Cloudy Clear Clear Clear Clear Clear Clear Clear Clear Clear Clear Clear Clear Clear Clear Clear Clear Clear Clear Clear Clear Clear Clear Clear Clear Clear Clear Clear Clear Clear Clear Clear Clear
66°F19°C 67°F19°C 67°F19°C 65°F18°C 63°F17°C 61°F16°C 60°F16°C 59°F15°C 58°F14°C 57°F14°C 56°F13°C 55°F13°C 54°F12°C 53°F12°C 52°F11°C 52°F11°C 52°F11°C 52°F11°C 55°F13°C 59°F15°C 62°F17°C 64°F18°C 67°F19°C 69°F21°C 70°F21°C 70°F21°C 71°F22°C 69°F21°C 67°F19°C 65°F18°C 64°F18°C 63°F17°C 62°F17°C 61°F16°C 60°F16°C 59°F15°C
- - - - - - - - - - - - - - - - - - - - - - - - - - - - - - - - - - - -
0% 0% 0% 0% 0% 0% 1% 1% 1% 1% 1% 1% 0% 0% 0% 0% 0% 0% 0% 0% 0% 0% 0% 0% 0% 0% 0% 0% 0% 0% 1% 1% 1% 1% 1% 1%
37°F3°C 36°F2°C 36°F2°C 37°F3°C 37°F3°C 38°F3°C 38°F3°C 39°F4°C 39°F4°C 39°F4°C 39°F4°C 39°F4°C 39°F4°C 39°F4°C 39°F4°C 39°F4°C 39°F4°C 39°F4°C 40°F4°C 41°F5°C 42°F6°C 42°F6°C 42°F6°C 42°F6°C 42°F6°C 43°F6°C 43°F6°C 44°F7°C 45°F7°C 46°F8°C 46°F8°C 47°F8°C 47°F8°C 47°F8°C 48°F9°C 48°F9°C
34% 32% 32% 35% 38% 42% 44% 47% 49% 51% 53% 55% 57% 59% 61% 61% 61% 61% 57% 51% 48% 45% 40% 38% 36% 38% 36% 41% 45% 50% 52% 56% 58% 60% 65% 67%
NW NW NW NW NW NW NW NW NW NW NW NW NW NW NW NW NW NW WNW W SSW SSW W W W W W SSW SSW SSW SSW SSW SSW SSW W W
16 mph 15 mph 15 mph 15 mph 10 mph 10 mph 10 mph 7 mph 7 mph 7 mph 6 mph 6 mph 6 mph 4 mph 4 mph 4 mph 4 mph 4 mph 4 mph 7 mph 7 mph 7 mph 9 mph 9 mph 9 mph 9 mph 9 mph 9 mph 5 mph 5 mph 5 mph 5 mph 5 mph 5 mph 4 mph 4 mph
10 mi16 km 10 mi16 km 10 mi16 km 10 mi16 km 10 mi16 km 10 mi16 km 10 mi16 km 10 mi16 km 10 mi16 km 10 mi16 km 10 mi16 km 10 mi16 km 10 mi16 km 10 mi16 km 10 mi16 km 10 mi16 km 10 mi16 km 10 mi16 km 10 mi16 km 10 mi16 km 10 mi16 km 10 mi16 km 10 mi16 km 10 mi16 km 10 mi16 km 10 mi16 km 10 mi16 km 10 mi16 km 10 mi16 km 10 mi16 km 10 mi16 km 10 mi16 km 10 mi16 km 10 mi16 km 10 mi16 km 10 mi16 km
Hour (EDT)
Weather
Clouds
Temperature
Precip. Type
POP
Dewpoint
Humidity
Wind Direction
Wind Speed
Visibility
POP = Probability of Precipitation. ** Indicates missing data/values from model statistics.

24 Hour Forecast

Today - Mostly sunny. Highs in the upper 60s. Northwest winds 10 to 15 mph with gusts up to 30 mph.
Tonight - Mostly clear. Lows in the mid 40s. Northwest winds 5 to 10 mph.

48 Hour Forecast API Feed


Mon, Oct 18
3:00 pm

Mon, Oct 18
4:00 pm

Mon, Oct 18
5:00 pm

Mon, Oct 18
6:00 pm

Mon, Oct 18
7:00 pm

Mon, Oct 18
8:00 pm

Mon, Oct 18
9:00 pm

Mon, Oct 18
10:00 pm

Mon, Oct 18
11:00 pm

Tue, Oct 19
Midnight

Tue, Oct 19
1:00 am

Tue, Oct 19
2:00 am

Tue, Oct 19
3:00 am

Tue, Oct 19
4:00 am

Tue, Oct 19
5:00 am

Tue, Oct 19
6:00 am

Tue, Oct 19
7:00 am

Tue, Oct 19
8:00 am

Tue, Oct 19
9:00 am

Tue, Oct 19
10:00 am

Tue, Oct 19
11:00 am

Tue, Oct 19
Noon

Tue, Oct 19
1:00 pm

Tue, Oct 19
2:00 pm

Tue, Oct 19
3:00 pm

Tue, Oct 19
4:00 pm

Tue, Oct 19
5:00 pm

Tue, Oct 19
6:00 pm

Tue, Oct 19
7:00 pm

Tue, Oct 19
8:00 pm

Tue, Oct 19
9:00 pm

Tue, Oct 19
10:00 pm

Tue, Oct 19
11:00 pm

Wed, Oct 20
Midnight

Wed, Oct 20
1:00 am

Wed, Oct 20
2:00 am

Wed, Oct 20
3:00 am

Wed, Oct 20
4:00 am

Wed, Oct 20
5:00 am

Wed, Oct 20
6:00 am

Wed, Oct 20
7:00 am

Wed, Oct 20
8:00 am

Wed, Oct 20
9:00 am

Wed, Oct 20
10:00 am

Wed, Oct 20
11:00 am

Wed, Oct 20
Noon

Wed, Oct 20
1:00 pm

Wed, Oct 20
2:00 pm
SunnySunnySunnySunnyClearClearClearClearClearClearClearClearClearClearClearClearClearSunnySunnySunnySunnySunnySunnySunnySunnySunnySunnySunnyClearClearClearClearClearOvercastPartly CloudyOvercastOvercastPartly CloudyClearClearClearSunnySunnySunnySunnySunnySunnySunny
Sunny Sunny Sunny Sunny Clear Clear Clear Clear Clear Clear Clear Clear Clear Clear Clear Clear Clear Sunny Sunny Sunny Sunny Sunny Sunny Sunny Sunny Sunny Sunny Sunny Clear Clear Clear Clear Clear Overcast Partly cloudy Overcast Overcast Partly cloudy Clear Clear Clear Sunny Sunny Sunny Sunny Sunny Sunny Sunny
68°F
20°C
68°F
20°C
64°F
18°C
62°F
17°C
60°F
16°C
58°F
15°C
57°F
14°C
56°F
13°C
54°F
12°C
53°F
12°C
52°F
11°C
51°F
10°C
50°F
10°C
49°F
9°C
48°F
9°C
47°F
9°C
47°F
8°C
48°F
9°C
52°F
11°C
57°F
14°C
63°F
17°C
66°F
19°C
69°F
21°C
71°F
22°C
73°F
23°C
74°F
23°C
75°F
24°C
69°F
21°C
66°F
19°C
59°F
15°C
58°F
15°C
57°F
14°C
57°F
14°C
56°F
13°C
56°F
13°C
56°F
14°C
56°F
13°C
56°F
13°C
55°F
13°C
53°F
12°C
53°F
12°C
54°F
12°C
59°F
15°C
64°F
18°C
70°F
21°C
72°F
22°C
74°F
23°C
76°F
24°C
37°F
3°C
39°F
4°C
37°F
3°C
37°F
3°C
36°F
2°C
36°F
2°C
36°F
2°C
37°F
3°C
38°F
3°C
37°F
3°C
37°F
3°C
37°F
3°C
37°F
3°C
37°F
3°C
37°F
3°C
37°F
3°C
37°F
3°C
37°F
3°C
38°F
3°C
38°F
4°C
41°F
5°C
42°F
5°C
42°F
6°C
42°F
6°C
42°F
6°C
43°F
6°C
47°F
8°C
49°F
9°C
47°F
9°C
42°F
6°C
42°F
6°C
43°F
6°C
44°F
7°C
44°F
7°C
45°F
7°C
45°F
7°C
45°F
7°C
44°F
7°C
44°F
7°C
43°F
6°C
43°F
6°C
44°F
6°C
45°F
7°C
46°F
8°C
47°F
8°C
46°F
8°C
45°F
7°C
44°F
7°C
29.97 in
1015 mb
29.97 in
1015 mb
29.97 in
1015 mb
30 in
1016 mb
30.03 in
1017 mb
30.06 in
1018 mb
30.06 in
1018 mb
30.09 in
1019 mb
30.09 in
1019 mb
30.12 in
1020 mb
30.12 in
1020 mb
30.12 in
1020 mb
30.15 in
1021 mb
30.15 in
1021 mb
30.15 in
1021 mb
30.15 in
1021 mb
30.15 in
1021 mb
30.18 in
1022 mb
30.18 in
1022 mb
30.18 in
1022 mb
30.18 in
1022 mb
30.18 in
1022 mb
30.15 in
1021 mb
30.12 in
1020 mb
30.09 in
1019 mb
30.09 in
1019 mb
30.06 in
1018 mb
30.09 in
1019 mb
30.09 in
1019 mb
30.12 in
1020 mb
30.12 in
1020 mb
30.12 in
1020 mb
30.12 in
1020 mb
30.12 in
1020 mb
30.12 in
1020 mb
30.12 in
1020 mb
30.12 in
1020 mb
30.12 in
1020 mb
30.15 in
1021 mb
30.15 in
1021 mb
30.15 in
1021 mb
30.15 in
1021 mb
30.18 in
1022 mb
30.18 in
1022 mb
30.18 in
1022 mb
30.15 in
1021 mb
30.15 in
1021 mb
30.12 in
1020 mb
33%34%37%39%40%42%45%49%53%55%57%59%61%62%65%66%68%67%58%50%44%41%38%35%33%32%37%48%51%54%56%58%61%65%66%66%66%66%67%69%69%69%60%50%43%39%35%33%
NWNWNWNWNWNWNWNWNWNWWNWWNWNWNWNWNWWNWWWWWWWWWWWSWWSWWSWWWWWWNWWNWWWWWWWWWWNWWNWWNWWNWW
14 mph
22 km/h
13 mph
20 km/h
11 mph
18 km/h
11 mph
17 km/h
11 mph
17 km/h
10 mph
17 km/h
10 mph
16 km/h
9 mph
15 km/h
9 mph
14 km/h
9 mph
14 km/h
8 mph
13 km/h
8 mph
12 km/h
7 mph
12 km/h
7 mph
11 km/h
6 mph
9 km/h
5 mph
8 km/h
4 mph
7 km/h
4 mph
7 km/h
6 mph
9 km/h
7 mph
12 km/h
8 mph
13 km/h
9 mph
14 km/h
9 mph
15 km/h
9 mph
15 km/h
9 mph
14 km/h
9 mph
14 km/h
7 mph
11 km/h
4 mph
7 km/h
4 mph
6 km/h
4 mph
7 km/h
4 mph
7 km/h
4 mph
7 km/h
4 mph
7 km/h
5 mph
8 km/h
5 mph
9 km/h
6 mph
9 km/h
5 mph
9 km/h
6 mph
9 km/h
5 mph
8 km/h
5 mph
8 km/h
5 mph
8 km/h
5 mph
8 km/h
5 mph
9 km/h
7 mph
11 km/h
8 mph
13 km/h
9 mph
14 km/h
9 mph
14 km/h
8 mph
13 km/h
0%0%0%0%0%0%0%0%0%0%0%0%0%0%0%0%0%0%0%0%0%0%0%0%0%0%0%0%0%0%0%0%0%0%0%0%0%0%0%0%0%0%0%0%0%0%0%0%
6 mi
10 km
6 mi
10 km
6 mi
10 km
6 mi
10 km
6 mi
10 km
6 mi
10 km
6 mi
10 km
6 mi
10 km
6 mi
10 km
6 mi
10 km
6 mi
10 km
6 mi
10 km
6 mi
10 km
6 mi
10 km
6 mi
10 km
6 mi
10 km
6 mi
10 km
6 mi
10 km
6 mi
10 km
6 mi
10 km
6 mi
10 km
6 mi
10 km
6 mi
10 km
6 mi
10 km
6 mi
10 km
6 mi
10 km
6 mi
10 km
6 mi
10 km
6 mi
10 km
6 mi
10 km
6 mi
10 km
6 mi
10 km
6 mi
10 km
6 mi
10 km
6 mi
10 km
6 mi
10 km
6 mi
10 km
6 mi
10 km
6 mi
10 km
6 mi
10 km
6 mi
10 km
6 mi
10 km
6 mi
10 km
6 mi
10 km
6 mi
10 km
6 mi
10 km
6 mi
10 km
6 mi
10 km

Day/Time
Weather
Condition
Temperature
Dew Point
Pressure
Humidity
Wind Direction
Wind Speed
Prob Precip %
Visibility
Prob Precip % = Probability of Precipitation.